Location: Eldred Sherwood Park Lake Dam
(42.9416°N, 93.5655°W)
Time: 08:40:27
(UTC+00:00)

Tiros 1 - Pass Details

Date: 11 November 2024
Orbit: 622 x 653 km, 48.4° (Epoch: 06 December)

Event Time Altitude Azimuth Distance (km) Brightness Sun altitude
Rises 02:37:05 0° 277° (W) 2,964 11.4 -40.6°
Reaches altitude 10° 02:39:32 10° 284° (WNW) 2,056 10.4 -41.0°
Enters shadow 02:39:39 11° 285° (WNW) 2,013 10.3 -41.1°
